Location: Mount Graham
(32.7016°N, 109.8912°W)
Time: 10:53:19
(UTC-07:00)

Daily predictions for brighter satellites

Satellite Brightness Start Highest point End
(mag) Time Altitude Azimuth Time Altitude Azimuth Time Altitude Azimuth
Meteor 1-26 Rocket 4.4 19:37:21 10° N 19:43:08 61° E 19:48:57 10° SSE
Cosmos 1340 Rocket 3.0 19:41:21 10° S 19:45:10 49° E 19:49:02 10° NNE
CZ-4 DEB 4.3 19:44:55 10° ESE 19:47:18 20° ENE 19:49:41 10° NNE
Abrixas rocket 3.2 19:44:19 10° NW 19:47:32 38° NE 19:50:44 10° ESE
ERS-1 Rocket 4.2 19:43:45 10° ESE 19:47:42 24° ENE 19:51:40 10° NNE
USA 186 2.0 19:49:51 10° SSE 19:52:43 46° ENE 19:55:47 10° N
Meteor 2-10 Rocket 4.5 19:47:33 10° NNE 19:52:48 34° ENE 19:57:54 10° SE
H-2A R/B 2.9 19:49:51 10° WSW 19:52:52 52° SSE 20:05:05 10° E
In-Cosmos 22 Rocket 4.3 19:47:20 10° S 19:53:09 84° E 19:58:58 10° N
Cosmos 2181 Rocket 4.1 19:49:40 10° N 19:56:07 76° E 20:02:28 10° S
H-2A R/B 3.8 19:58:33 10° ESE 20:01:23 17° ENE 20:04:11 10° NNE
Atlas Centaur 2 1.1 19:59:27 10° WSW 20:02:59 57° S 20:06:28 10° E
Cosmos 1892 2.8 20:01:02 10° S 20:04:44 53° E 20:08:29 10° NNE
Cosmos 909 Rocket 4.2 20:01:09 10° SSW 20:07:28 90° WNW 20:14:52 10° NNE
H-2A R/B 2.7 20:06:43 10° S 20:10:24 82° WSW 20:14:07 10° NNW
Cosmos 2074 Rocket 4.0 20:04:49 10° S 20:11:00 64° E 20:17:12 10° NNE
USA 234 4.4 20:08:52 10° E 20:13:07 18° ESE 20:17:22 10° SSE
Meteosat 1 Rocket2 4.3 20:12:54 10° WSW 20:18:25 58° S 20:27:00 10° E
Okean 1-7 3.7 20:14:59 10° NNW 20:19:11 55° W 20:23:25 10° S
Resurs 01 Rocket 4.3 20:16:25 10° SW 20:19:29 18° W 20:22:33 10° NW
Cosmos 2056 Rocket 3.5 20:21:11 10° SSW 20:26:23 84° WNW 20:31:32 10° NNE
Sich 1 Rocket 4.0 20:25:20 10° SSE 20:29:41 46° E 20:34:04 10° NNE
Cosmos 1674 Rocket 3.9 20:29:08 10° N 20:33:26 46° E 20:36:01 21° SE
CENTAUR R/B 3.1 20:30:39 10° NNW 20:38:43 85° ENE 20:45:16 18° SSE
IUS-26 SRM-1 3.7 20:38:48 10° SW 20:39:35 15° SSW 20:39:35 15° SSW
SL-27 R/B 2.9 20:38:17 10° N 20:41:48 45° ENE 20:42:56 33° ESE
COS B Rocket 3.9 20:39:11 10° NNE 20:42:53 34° E 20:43:40 30° ESE
Cosmos 2341 Rocket 4.3 20:42:11 17° SSE 20:46:40 45° E 20:52:35 10° NNE
SJ-11-01 4.4 20:42:37 14° S 20:46:40 80° WSW 20:51:26 10° NNW
Coronas F rocket 3.8 20:45:08 10° SW 20:47:17 22° W 20:49:27 10° NNW
COSMOS 2406 3.2 20:42:27 10° NNW 20:48:13 82° ENE 20:51:52 23° SSE
ATLAS 5 CENTAUR R/B 2.4 20:42:20 10° NNW 20:48:30 77° ENE 20:52:28 25° SE
ALOS 4.2 20:44:49 10° SSW 20:48:45 27° W 20:52:41 10° NW
ISS -3.5 20:52:19 10° SW 20:55:32 84° SE 20:58:49 10° NE
Cosmos 1825 2.4 20:56:12 43° SE 20:56:50 49° E 21:00:32 10° NNE
Cosmos 2278 Rocket 2.2 20:52:44 10° S 20:58:16 59° ESE 21:03:51 10° NNE
SPOT 5 3.2 20:56:49 31° SE 20:59:13 59° ENE 21:04:28 10° N
Cosmos 1238 Rocket 3.5 20:56:51 10° NNE 20:59:26 30° ENE 20:59:26 30° ENE
Cosmos 1862 3.2 20:59:45 35° S 21:01:21 70° E 21:05:25 10° NNE
Cosmos 1844 3.8 20:56:12 10° SSW 21:01:56 81° WNW 21:07:45 10° NNE
Cosmos 1975 Rocket 4.1 20:58:42 10° NNE 21:02:26 28° ENE 21:02:26 28° ENE
Envisat 2.9 21:00:13 25° SSE 21:03:13 87° WSW 21:08:19 10° NNW
YAOGAN 6 3.4 21:03:52 34° ENE 21:03:52 34° ENE 21:06:50 10° N
Terra 4.0 21:04:37 11° ENE 21:04:38 11° ENE 21:05:44 10° NE
Cosmos 1408 2.5 21:04:16 58° SE 21:04:39 63° E 21:08:16 10° NNE
Cosmos 1844 Rocket 3.5 21:00:58 10° SW 21:06:28 52° WNW 21:11:59 10° N
ERBS 2.2 21:03:24 10° NW 21:06:52 79° SW 21:07:10 70° S
Cosmos 1908 Rocket 3.6 21:04:19 20° S 21:07:17 81° W 21:11:43 10° N
Cosmos 962 Rocket 4.4 21:03:37 22° S 21:07:43 68° E 21:13:52 10° NNE
EO 1 Delta rocket 4.4 21:05:55 10° N 21:11:55 72° WNW 21:16:22 13° SSW
Cosmos 1420 Rocket 4.1 21:11:37 40° SSE 21:13:04 52° ESE 21:18:08 10° NNE
H-2A R/B 3.6 21:15:17 20° ENE 21:15:42 20° ENE 21:19:32 10° NNE
Cosmos 2154 Rocket 4.1 21:09:56 10° S 21:16:09 78° W 21:22:23 10° N
GPS 2-05 Rocket1 2.9 21:12:43 10° W 21:16:23 78° NNW 21:16:36 74° NNE
PSLV R/B 3.5 21:13:00 10° WNW 21:16:25 64° NNE 21:16:25 64° NNE
USA 245 4.4 21:17:30 26° NE 21:17:30 26° NE 21:19:41 10° N
Cosmos 1378 Rocket 3.4 21:12:46 10° N 21:17:04 71° E 21:17:39 61° SE
MetOp-A 4.0 21:15:52 41° SSE 21:17:45 75° ENE 21:23:06 10° N
Cosmos 1242 Rocket 4.3 21:16:10 10° NNE 21:18:10 23° NE 21:18:10 23° NE
Dummy Sat-02 4.5 21:17:05 10° N 21:20:51 88° E 21:20:56 86° SSE
Cosmos 2082 Rocket 3.9 21:18:33 10° NNE 21:22:16 17° ENE 21:23:06 17° ENE
Cosmos 2084 4.1 21:20:26 10° SW 21:24:11 48° WNW 21:27:55 10° NNE
Abrixas rocket 4.5 21:22:00 10° W 21:24:08 18° SW 21:24:08 18° SW
FALCON 9 R/B 4.3 20:44:06 10° WNW 21:24:41 60° SW 21:30:45 32° SSE
ERS-1 Rocket 4.5 21:22:22 13° SSW 21:26:16 31° W 21:30:44 10° NW
Cosmos 407 Rocket 3.6 21:21:44 10° NNW 21:26:59 71° WSW 21:28:44 42° S
SL-08 RB Rocket 4.3 21:29:16 41° ENE 21:29:16 41° ENE 21:33:24 10° N
Cosmos 1452 Rocket 4.3 21:24:24 10° SSW 21:29:30 51° WNW 21:34:38 10° N
SPOT 1/Viking Rocket 3.5 21:29:54 56° ESE 21:30:41 65° ENE 21:35:50 10° N
Cosmos 1295 Rocket 4.4 21:28:19 38° S 21:30:55 76° E 21:37:12 10° N
Cosmos 2297 3.7 21:30:36 53° ESE 21:31:02 55° ESE 21:36:36 10° NNE
OAO 1 Rocket 4.3 21:27:59 10° WSW 21:33:15 70° SSE 21:33:40 66° SE
Meteor 1-27 Rocket 4.0 21:29:54 10° NNW 21:35:23 63° W 21:37:31 36° SSW
deb Centaur AC-2 4.4 21:30:54 10° W 21:36:29 61° S 21:36:29 61° S
H-2A R/B 3.5 21:35:28 24° SW 21:37:07 32° W 21:40:59 10° NW
Cosmos 1606 3.7 21:34:30 10° NNW 21:38:13 42° W 21:38:42 40° WSW
Cosmos 1140 Rocket 3.7 21:33:17 10° N 21:38:17 50° ENE 21:38:19 50° ENE
NOAA 11 4.1 21:41:27 64° ESE 21:42:06 72° ENE 21:47:35 10° N
Cosmos 489 Rocket 4.4 21:38:08 10° N 21:44:18 68° ENE 21:45:15 59° ESE
Cosmos 2366 rocket 4.0 21:46:27 57° ESE 21:46:55 58° E 21:53:05 10° NNE
Atlas Centaur 2 3.2 21:47:58 10° W 21:49:07 19° WSW 21:49:07 19° WSW
CZ-4B R/B 3.8 21:46:48 10° N 21:51:39 59° WNW 21:52:58 43° SW
USA 234 3.1 21:49:56 10° NE 21:56:30 89° NW 22:03:01 10° SW
CZ-4 R/B 3.9 21:52:46 10° N 21:57:23 70° WNW 21:57:23 70° WNW
Okean 2 Rocket 4.2 22:00:11 37° WSW 22:00:47 39° W 22:04:57 10° N
Cosmos 1850 Rocket 4.2 22:02:05 10° NNW 22:06:48 65° NNE 22:06:48 65° NNE
Cosmos 2218 Rocket 4.1 22:10:31 58° SW 22:11:44 74° W 22:18:09 10° N
Meteor 1-25 Rocket 4.4 22:22:08 72° N 22:22:08 72° N 22:27:21 10° N
ARGOS 3.9 22:24:10 42° W 22:24:12 42° W 22:29:17 10° NNW
ISS 0.3 22:31:27 10° NW 22:32:10 11° NNW 22:32:10 11° NNW
Cosmos 1727 Rocket 4.0 22:27:08 10° N 22:32:48 76° NNW 22:32:48 76° NNW
Terra 3.1 22:43:30 37° NNW 22:43:30 37° NNW 22:46:29 10° NNW
USA 229 DEB 3.9 22:36:45 10° NNW 22:43:40 62° NE 22:43:40 62° NE
USA 229 3.9 22:36:52 10° NNW 22:43:46 61° NE 22:43:46 61° NE
Cosmos 1833 Rocket 3.4 22:43:55 10° NNW 22:47:59 49° N 22:47:59 49° N
H-2A R/B 3.3 22:55:56 38° WNW 22:55:56 38° WNW 22:59:51 10° NNW
Cosmos 2082 Rocket 3.3 23:01:08 10° NNW 23:04:57 40° NW 23:04:57 40° NW
NOSS 3-1 (C) 4.5 23:26:07 10° NNW 23:33:31 54° NE 23:33:31 54° NE
Cosmos 2369 Rocket 3.8 23:54:35 30° N 23:54:35 30° N 23:57:22 10° NNE
